Weather History for Coolangatta, QU

Change the Weather History Date:

Tuesday, March 26, 2013

  Actual Average (YBBN) Record (YBBN)
Temperature  
Mean Temperature 75 °F -  
Max Temperature 82 °F 79 °F 86 °F (2001)
Min Temperature 68 °F 64 °F 39 °F (2005)
Cooling Degree Days 10    
Growing Degree Days 25 (Base 50)    
Moisture  
Dew Point 67 °F    
Average Humidity 78    
Maximum Humidity 94    
Minimum Humidity 52    
Precipitation  
Precipitation 0.02 in - - ()
Sea Level Pressure  
Sea Level Pressure 30.07 in    
Wind  
Wind Speed 6 mph ()    
Max Wind Speed 14 mph    
Max Gust Speed -    
Visibility 6.2 miles    
Events      
Averages and records for this station are not official NWS values.
T = Trace of Precipitation, MM = Missing Value Source: Averaged Metar Reports

Daily Weather History Graph

Daily Weather History Graph

Search for Another Location

Airport:

Trip Planner

Search our weather history database for the weather conditions in past years. The results will help you decide how hot, cold, wet, or windy it might be!

Date:

Astronomy

Mar. 26, 2013 Rise Set
Actual Time 5:52 AM AEST 5:50 PM AEST
Civil Twilight 5:29 AM AEST 6:13 PM AEST
Nautical Twilight 5:01 AM AEST 6:41 PM AEST
Astronomical Twilight 4:34 AM AEST 7:08 PM AEST
Moon 4:52 PM AEST (3/26) 4:24 AM AEST (3/26)
Length of Visible Light 12h 44m
Length of Day
11h 57m
Waxing Gibbous, 98% of the Moon is Illuminated
Mar 26
Waxing Gibbous
Mar 27
Full
Apr 3
Last Quarter
Apr 10
New
Apr 18
First Quarter

Hourly Weather History & Observations

Time (AEST) Temp. Heat Index Dew Point Humidity Pressure Visibility Wind Dir Wind Speed Gust Speed Precip Events Conditions
12:00 AM 75 °F - 66 °F 67% 30.08 in - East 9.2 mph - -  
12:00 AM 75.2 °F - 66.2 °F 73% 30.06 in 6.2 mi ENE 9.2 mph - N/A   Scattered Clouds
12:30 AM 75.2 °F - 64.4 °F 69% 30.06 in 6.2 mi East 5.8 mph - N/A   Unknown
1:00 AM 71.6 °F - 68.0 °F 88% 30.06 in 6.2 mi SW 4.6 mph - N/A   Scattered Clouds
1:30 AM 69.8 °F - 68.0 °F 94% 30.04 in 6.2 mi WSW 5.8 mph - N/A   Scattered Clouds
2:00 AM 69.8 °F - 68.0 °F 94% 30.04 in 6.2 mi WSW 5.8 mph - N/A   Overcast
2:30 AM 69.8 °F - 68.0 °F 94% 30.04 in 6.2 mi SSW 4.6 mph - N/A   Scattered Clouds
3:00 AM 70 °F - 67 °F 89% 30.04 in - SSW 1.2 mph - -   Overcast
3:00 AM 69.8 °F - 68.0 °F 94% 30.04 in 6.2 mi SSW 1.2 mph - N/A   Mostly Cloudy
3:30 AM 69.8 °F - 68.0 °F 94% 30.04 in 6.2 mi SW 4.6 mph - N/A   Mostly Cloudy
4:00 AM 69.8 °F - 66.2 °F 88% 30.04 in 6.2 mi SW 4.6 mph - N/A   Scattered Clouds
4:30 AM 68.0 °F - 66.2 °F 94% 30.04 in 6.2 mi WSW 4.6 mph - N/A   Scattered Clouds
5:00 AM 68.0 °F - 66.2 °F 94% 30.04 in 6.2 mi SW 3.5 mph - N/A   Scattered Clouds
5:30 AM 68.0 °F - 66.2 °F 94% 30.06 in 6.2 mi SW 3.5 mph - N/A   Unknown
6:00 AM 69 °F - 67 °F 91% 30.07 in - Calm Calm - -  
6:00 AM 68.0 °F - 66.2 °F 94% 30.06 in 6.2 mi Calm Calm - N/A   Unknown
6:30 AM 69.8 °F - 68.0 °F 94% 30.06 in 6.2 mi Calm Calm - N/A   Unknown
7:00 AM 71.6 °F - 68.0 °F 88% 30.09 in 6.2 mi SW 3.5 mph - N/A   Unknown
7:30 AM 75.2 °F - 68.0 °F 78% 30.09 in 6.2 mi South 3.5 mph - N/A   Unknown
8:00 AM 77.0 °F - 69.8 °F 78% 30.09 in 6.2 mi South 5.8 mph - N/A   Scattered Clouds
8:30 AM 77.0 °F - 68.0 °F 74% 30.09 in 6.2 mi South 6.9 mph - N/A   Unknown
9:00 AM 78 °F - 68 °F 64% 30.12 in - SSE 8.1 mph - -  
9:00 AM 78.8 °F - 68.0 °F 69% 30.09 in 6.2 mi SSE 8.1 mph - N/A   Scattered Clouds
9:30 AM 80.6 °F 83.2 °F 68.0 °F 65% 30.12 in 6.2 mi East 11.5 mph - N/A   Scattered Clouds
10:00 AM 78.8 °F - 66.2 °F 65% 30.12 in 6.2 mi ESE 11.5 mph - N/A   Scattered Clouds
10:30 AM 82.4 °F 85.4 °F 68.0 °F 62% 30.09 in 6.2 mi East 11.5 mph - N/A   Mostly Cloudy
11:00 AM 80.6 °F 83.2 °F 68.0 °F 65% 30.09 in 6.2 mi East 10.4 mph - N/A   Mostly Cloudy
11:30 AM 82.4 °F 85.4 °F 68.0 °F 62% 30.09 in 6.2 mi East 11.5 mph - N/A   Scattered Clouds
12:00 PM 82 °F - 67 °F 52% 30.09 in - East 10.4 mph - -  
12:00 PM 82.4 °F 85.4 °F 68.0 °F 62% 30.06 in 6.2 mi East 10.4 mph - N/A   Scattered Clouds
12:30 PM 80.6 °F 82.7 °F 66.2 °F 61% 30.06 in 6.2 mi East 11.5 mph - N/A   Scattered Clouds
1:00 PM 78.8 °F - 66.2 °F 65% 30.06 in 6.2 mi ESE 9.2 mph - N/A   Mostly Cloudy
1:30 PM 78.8 °F - 66.2 °F 65% 30.06 in 6.2 mi East 10.4 mph - N/A   Mostly Cloudy
2:00 PM 80.6 °F 82.7 °F 66.2 °F 61% 30.04 in 6.2 mi East 10.4 mph - N/A   Scattered Clouds
2:30 PM 80.6 °F 82.7 °F 66.2 °F 61% 30.04 in 6.2 mi East 11.5 mph - N/A   Scattered Clouds
3:00 PM 80 °F - 68 °F 59% 30.05 in - SE 12.7 mph - -  
3:00 PM 80.6 °F 83.2 °F 68.0 °F 65% 30.04 in 6.2 mi SE 12.7 mph - N/A   Scattered Clouds
3:30 PM 78.8 °F - 68.0 °F 69% 30.04 in 6.2 mi ESE 13.8 mph - N/A   Scattered Clouds
4:00 PM 78.8 °F - 66.2 °F 65% 30.04 in 6.2 mi SE 12.7 mph - N/A   Mostly Cloudy
4:30 PM 77.0 °F - 66.2 °F 69% 30.04 in 6.2 mi ESE 10.4 mph - N/A   Scattered Clouds
5:00 PM 77.0 °F - 66.2 °F 69% 30.04 in 6.2 mi ESE 10.4 mph - N/A   Scattered Clouds
5:30 PM 77.0 °F - 66.2 °F 69% 30.04 in 6.2 mi ESE 11.5 mph - N/A   Scattered Clouds
6:00 PM 73 °F - 69 °F 83% 30.07 in - SSE 6.9 mph - -  
6:03 PM 73.4 °F - 69.8 °F 88% 30.06 in 6.2 mi SSE 6.9 mph - N/A   Overcast
6:30 PM 73.4 °F - 68.0 °F 83% 30.06 in 6.2 mi SSE 6.9 mph - N/A   Overcast
7:00 PM 73.4 °F - 68.0 °F 83% 30.06 in 6.2 mi SE 6.9 mph - N/A   Scattered Clouds
7:30 PM 73.4 °F - 66.2 °F 78% 30.09 in 6.2 mi South 3.5 mph - N/A   Scattered Clouds
8:00 PM 71.6 °F - 68.0 °F 88% 30.09 in 6.2 mi WSW 4.6 mph - N/A   Scattered Clouds
8:30 PM 71.6 °F - 68.0 °F 88% 30.09 in 6.2 mi South 3.5 mph - N/A   Mostly Cloudy
9:00 PM 71 °F - 67 °F 82% 30.12 in - South 3.5 mph - -  
9:00 PM 71.6 °F - 66.2 °F 83% 30.09 in 6.2 mi South 3.5 mph - N/A   Scattered Clouds
9:30 PM 71.6 °F - 68.0 °F 88% 30.09 in 6.2 mi SSW 2.3 mph - N/A   Scattered Clouds
10:00 PM 69.8 °F - 68.0 °F 94% 30.09 in 6.2 mi SSW 3.5 mph - N/A   Unknown
10:30 PM 69.8 °F - 68.0 °F 94% 30.09 in 6.2 mi WSW 3.5 mph - N/A   Unknown
11:00 PM 69.8 °F - 68.0 °F 94% 30.09 in 6.2 mi WSW 6.9 mph - N/A   Scattered Clouds
11:30 PM 69.8 °F - 68.0 °F 94% 30.09 in 6.2 mi SW 4.6 mph - N/A   Scattered Clouds